Weather in Tver

Russia / Tver Oblast     56°51′34″N   35°54′42″E
temp.,
°C
wind,
m/s
gust,
m/s
humid.,
%
clouds,
%
prec.,
mm/h
press.,
hPa
HPBL,
m
22 april, thu
thu2200:00+4s41087100 0.0 1009313
03:00+4ssw4119498 0.1 1009314
06:00+2s41093100 0.0 1010268
09:00+5ssw51188100 0.7 1011451
12:00+11sw586973 0.1 1011900
15:00+13sw575299 0.8 10111676
18:00+14s365454 0.0 1011351
21:00+8sse3108148 0.1 1012239
23 april, fri
fri2300:00+7s4128978 0.0 1011323
03:00+6sse4119242 0.0 1011304
06:00+7s5159073 0.0 1010573
09:00+10s61279100 0.0 1010877
12:00+5w6992100 0.7 1012604
15:00+7ssw4879100 4.1 1012784
18:00+8sse3672100 0.1 1012284
21:00+6sse3688100 0.2 1012171
24 april, sat
sat2400:00+5se2492100 0.3 1010105
03:00+5s1189100 1.6 100855
06:00+4wnw3590100 1.8 1007480
09:00+5w3576100 2.3 1007778
12:00+6w4572100 0.4 1007956
15:00+8w5649100 1.1 10071963
18:00+8w455021 0.1 10061368
21:00+4w4106619 0.2 1008246
25 april, sun
sun2500:00+1wsw37776 0.0 1008159
03:000wsw38865 0.0 1008195
06:000wsw39915 0.0 1008357
09:00+4wsw466184 0.0 10081211
12:00+6sw6850100 0.5 10081981
15:00+7wsw6848100 0.8 10082013
18:00+5wsw696889 0.5 10081173
21:00+2sw410795 0.6 1010367
26 april, mon
mon2600:000ssw4987100 0.0 1010284
03:00−1ssw49915 0.0 1010241
06:00−1ssw489480 0.0 1010348
09:00+2wsw4773100 0.1 10101044
12:00+4wsw4759100 0.1 10101368
15:00+6wsw465183 0.1 10091433
18:00+6wsw354718 0.0 10081664
21:00+1sw11695 0.0 100810